Find Starlink 31473

NORAD ID: 59339 Int'l Des: 2024-057 Owner: SPXS Country: US Constellation: starlink operational
LEOCIRCULAR

現在のビュー

3D地球を読み込み中...

About Starlink 31473

Starlink 31473 (NORAD 59339) is a starlink constellation satellite (v2 mini) launched Mar 25, 2024 by SPXS of US. It operates in LEO, CIRCULAR orbit with a mass of 730.00 kg.

Starlink 31473について

説明を読み込み中...

次回通過

Passes for default location (London). Set your location on the main map for personalized predictions.

高度履歴

Loading altitude history...

軌道要素

1 59339U 24057V 26173.65456442 .00001717 00000-0 71897-4 0 9994
2 59339 43.0012 314.1491 0001289 241.0493 119.0230 15.27578643125896
Epoch: Jun 22, 2026 • Age: 16 hours

現在のステータス

高度 484.8 km
速度 7.63 km/s
衛星直下点 34.05°N, 53.5°E
打ち上げ日 Mar 25, 2024
運用期間 2.2 years
タイプ internet

技術仕様

分類 Payload
質量 730.00 kg
乾燥質量 700.00 kg
総質量 730.00 kg
長さ 0.30 m
直径 4.10 m
スパン 29.00 m
形状 Box + pan
製造者 SPXS
バスタイプ Starlink V2M
フェーズステータス In Orbit
所有者/国 SPXS/US

Most Searched